Back to catalog

FENGYUN 1C DEB

AliveSSO
NORAD 30466·DEBRIS·🇨🇳 China

Launched May 10, 1999 from Taiyuan Satellite Launch Center

Loading…

Next Passes (next 24 hours)

TLE

FreshSource: Space-Track

Epoch: Sep 14, 2026, 13:55 UTC

1 30466U 99025AGD 26257.58046904  .00001224  00000-0  51984-3 0  9991
2 30466  98.6330 297.6470 0114659 303.9563 219.9991 14.23635797 12741

Track FENGYUN 1C DEB in real time with AllMySat

Download on the App Store